QPF
0.00 0.00 0.00 0.00 0.01 0.01 0.01 0.01 0.01 0.01 0.01 0.01 0.01 0.01 0.02 0.02 0.04 0.08 0.09 0.06 0.06 0.07 0.10 0.11 0.12 0.12 0.11 0.11 0.13 0.12 0.10 0.10 0.08 0.10 0.14 0.13 0.13 0.14 0.09 0.06 0.08 0.08 0.07 0.07 0.06 0.05 0.04 0.05 0.04
0.00 0.00 0.00 0.00 0.01 0.01 0.00 0.00 0.00 0.01 0.01 0.00 0.00 0.01 0.02 0.01 0.02 0.05 0.07 0.09 0.10 0.09 0.10 0.09 0.09 0.09 0.09 0.09 0.12 0.11 0.11 0.10 0.08 0.10 0.14 0.16 0.12 0.14 0.13 0.11 0.11 0.09 0.09 0.08 0.07 0.05 0.04 0.04 0.02
0.00 0.00 0.00 0.01 0.01 0.00 0.00 0.00 0.01 0.00 0.00 0.00 0.00 0.01 0.01 0.02 0.04 0.10 0.10 0.10 0.12 0.12 0.11 0.10 0.09 0.10 0.08 0.09 0.10 0.10 0.13 0.13 0.10 0.13 0.15 0.16 0.15 0.13 0.15 0.13 0.13 0.11 0.10 0.07 0.06 0.05 0.05 0.03 0.02
0.00 0.00 0.00 0.00 0.00 0.00 0.00 0.00 0.00 0.00 0.00 0.00 0.01 0.01 0.02 0.03 0.06 0.10 0.07 0.07 0.11 0.13 0.15 0.13 0.12 0.11 0.10 0.10 0.10 0.10 0.14 0.16 0.14 0.13 0.15 0.17 0.17 0.14 0.17 0.15 0.13 0.12 0.09 0.07 0.06 0.05 0.04 0.03 0.03
0.00 0.00 0.00 0.00 0.00 0.00 0.00 0.00 0.00 0.01 0.01 0.00 0.01 0.01 0.03 0.04 0.05 0.06 0.04 0.06 0.09 0.11 0.15 0.13 0.14 0.13 0.15 0.16 0.16 0.14 0.15 0.15 0.14 0.11 0.12 0.13 0.15 0.14 0.13 0.15 0.14 0.12 0.09 0.07 0.07 0.06 0.05 0.03 0.02
0.00 0.00 0.00 0.00 0.00 0.00 0.00 0.00 0.00 0.01 0.01 0.00 0.01 0.02 0.05 0.06 0.05 0.05 0.06 0.07 0.10 0.12 0.12 0.10 0.12 0.14 0.16 0.17 0.15 0.12 0.12 0.13 0.12 0.08 0.08 0.09 0.11 0.12 0.12 0.13 0.15 0.14 0.11 0.07 0.07 0.06 0.06 0.04 0.03
0.00 0.00 0.00 0.00 0.00 0.00 0.01 0.01 0.01 0.01 0.00 0.00 0.00 0.02 0.05 0.05 0.05 0.06 0.10 0.13 0.13 0.12 0.09 0.10 0.13 0.15 0.18 0.17 0.14 0.12 0.12 0.11 0.09 0.07 0.07 0.08 0.10 0.11 0.13 0.15 0.15 0.14 0.12 0.09 0.07 0.07 0.06 0.05 0.04
0.00 0.00 0.00 0.00 0.00 0.00 0.00 0.01 0.01 0.01 0.00 0.00 0.01 0.02 0.04 0.05 0.05 0.05 0.10 0.15 0.16 0.14 0.10 0.10 0.14 0.18 0.19 0.16 0.14 0.12 0.13 0.11 0.09 0.09 0.11 0.11 0.13 0.12 0.13 0.14 0.17 0.16 0.14 0.11 0.09 0.08 0.07 0.06 0.05
0.00 0.00 0.00 0.00 0.00 0.00 0.00 0.01 0.00 0.00 0.00 0.00 0.01 0.02 0.03 0.04 0.03 0.03 0.07 0.13 0.15 0.17 0.13 0.11 0.14 0.16 0.16 0.14 0.14 0.15 0.14 0.13 0.11 0.12 0.12 0.15 0.15 0.14 0.13 0.15 0.19 0.19 0.14 0.13 0.12 0.11 0.11 0.09 0.07
0.00 0.00 0.00 0.00 0.00 0.00 0.00 0.00 0.00 0.00 0.00 0.00 0.01 0.02 0.05 0.05 0.02 0.02 0.04 0.07 0.09 0.12 0.14 0.14 0.15 0.17 0.16 0.14 0.15 0.16 0.15 0.13 0.12 0.12 0.13 0.14 0.14 0.15 0.16 0.19 0.24 0.28 0.17 0.16 0.17 0.15 0.15 0.12 0.08
0.00 0.00 0.00 0.00 0.00 0.00 0.00 0.00 0.00 0.00 0.00 0.00 0.01 0.04 0.06 0.03 0.02 0.01 0.02 0.03 0.05 0.07 0.10 0.11 0.13 0.14 0.12 0.11 0.12 0.14 0.13 0.12 0.11 0.12 0.13 0.11 0.13 0.17 0.20 0.23 0.29 0.34 0.25 0.22 0.23 0.24 0.17 0.13 0.11
0.00 0.00 0.00 0.00 0.00 0.00 0.00 0.00 0.00 0.00 0.00 0.01 0.03 0.03 0.02 0.02 0.01 0.01 0.02 0.03 0.04 0.05 0.07 0.09 0.12 0.12 0.10 0.09 0.10 0.13 0.11 0.11 0.10 0.09 0.10 0.09 0.09 0.11 0.11 0.14 0.21 0.29 0.26 0.26 0.32 0.29 0.17 0.15 0.16
0.00 0.00 0.00 0.00 0.00 0.00 0.00 0.00 0.00 0.00 0.00 0.01 0.02 0.02 0.01 0.01 0.01 0.01 0.02 0.02 0.03 0.03 0.03 0.04 0.06 0.07 0.07 0.07 0.07 0.10 0.11 0.09 0.08 0.06 0.07 0.06 0.08 0.10 0.09 0.08 0.11 0.20 0.22 0.20 0.20 0.21 0.18 0.16 0.18
0.00 0.00 0.00 0.00 0.00 0.00 0.00 0.00 0.00 0.00 0.00 0.01 0.01 0.01 0.01 0.01 0.01 0.01 0.02 0.01 0.02 0.02 0.02 0.03 0.04 0.04 0.06 0.05 0.05 0.07 0.08 0.05 0.05 0.06 0.06 0.05 0.08 0.10 0.09 0.07 0.09 0.13 0.15 0.14 0.12 0.12 0.16 0.15 0.16
0.00 0.00 0.00 0.00 0.00 0.00 0.00 0.00 0.00 0.00 0.00 0.00 0.00 0.01 0.01 0.01 0.01 0.01 0.01 0.02 0.01 0.02 0.05 0.05 0.03 0.04 0.06 0.05 0.05 0.06 0.05 0.03 0.04 0.05 0.05 0.06 0.09 0.11 0.08 0.07 0.08 0.09 0.08 0.07 0.06 0.08 0.12 0.15 0.18
0.00 0.00 0.00 0.00 0.00 0.00 0.00 0.00 0.00 0.00 0.00 0.00 0.00 0.00 0.00 0.00 0.01 0.01 0.01 0.02 0.01 0.03 0.06 0.07 0.04 0.05 0.08 0.09 0.09 0.07 0.05 0.05 0.05 0.05 0.05 0.06 0.09 0.10 0.07 0.06 0.06 0.06 0.06 0.06 0.06 0.05 0.09 0.14 0.18
0.00 0.00 0.00 0.00 0.00 0.00 0.00 0.00 0.00 0.00 0.00 0.00 0.00 0.00 0.00 0.00 0.00 0.01 0.01 0.01 0.01 0.02 0.05 0.06 0.04 0.05 0.08 0.12 0.11 0.07 0.07 0.08 0.09 0.09 0.08 0.08 0.08 0.08 0.07 0.06 0.05 0.05 0.05 0.06 0.05 0.05 0.07 0.10 0.14
0.00 0.00 0.00 0.00 0.00 0.00 0.00 0.00 0.00 0.00 0.00 0.00 0.00 0.00 0.00 0.00 0.00 0.00 0.00 0.00 0.00 0.01 0.03 0.03 0.02 0.02 0.04 0.07 0.09 0.08 0.08 0.10 0.12 0.11 0.12 0.12 0.09 0.07 0.07 0.06 0.05 0.04 0.05 0.07 0.09 0.09 0.09 0.10 0.10
0.00 0.00 0.00 0.00 0.00 0.00 0.00 0.00 0.00 0.00 0.00 0.00 0.00 0.01 0.00 0.00 0.00 0.00 0.00 0.00 0.00 0.00 0.01 0.02 0.01 0.01 0.02 0.04 0.06 0.05 0.06 0.09 0.12 0.11 0.12 0.15 0.13 0.10 0.09 0.06 0.04 0.04 0.05 0.07 0.09 0.09 0.10 0.10 0.09
0.00 0.00 0.00 0.00 0.00 0.00 0.00 0.00 0.00 0.00 0.00 0.00 0.00 0.00 0.00 0.00 0.00 0.00 0.00 0.00 0.00 0.01 0.01 0.01 0.01 0.01 0.01 0.04 0.08 0.06 0.06 0.08 0.10 0.10 0.12 0.14 0.16 0.14 0.11 0.09 0.06 0.05 0.07 0.07 0.08 0.09 0.08 0.09 0.09
0.00 0.00 0.00 0.00 0.00 0.00 0.00 0.00 0.00 0.00 0.00 0.00 0.00 0.00 0.00 0.00 0.00 0.00 0.00 0.00 0.00 0.00 0.01 0.00 0.01 0.01 0.01 0.03 0.08 0.08 0.06 0.07 0.09 0.09 0.09 0.10 0.12 0.13 0.11 0.08 0.08 0.09 0.08 0.08 0.09 0.08 0.09 0.12 0.10
0.00 0.00 0.00 0.00 0.00 0.00 0.00 0.00 0.00 0.00 0.00 0.00 0.00 0.00 0.00 0.00 0.00 0.00 0.00 0.00 0.00 0.00 0.01 0.01 0.02 0.02 0.02 0.04 0.08 0.09 0.06 0.06 0.06 0.06 0.07 0.10 0.13 0.11 0.09 0.08 0.11 0.12 0.09 0.09 0.08 0.08 0.10 0.11 0.13
0.00 0.00 0.00 0.00 0.00 0.00 0.00 0.00 0.00 0.00 0.00 0.00 0.00 0.00 0.00 0.00 0.00 0.01 0.01 0.01 0.01 0.02 0.07 0.06 0.06 0.05 0.04 0.04 0.07 0.10 0.07 0.06 0.05 0.05 0.08 0.12 0.12 0.08 0.07 0.07 0.09 0.11 0.11 0.11 0.10 0.09 0.09 0.07 0.09
0.00 0.00 0.00 0.00 0.00 0.00 0.00 0.00 0.00 0.00 0.00 0.00 0.00 0.00 0.00 0.00 0.00 0.00 0.01 0.01 0.01 0.03 0.11 0.13 0.09 0.08 0.05 0.05 0.05 0.09 0.08 0.06 0.06 0.05 0.06 0.09 0.09 0.07 0.07 0.07 0.08 0.09 0.09 0.10 0.10 0.08 0.07 0.09 0.09
0.00 0.00 0.00 0.00 0.00 0.00 0.00 0.00 0.00 0.00 0.00 0.00 0.00 0.00 0.00 0.00 0.00 0.00 0.01 0.01 0.01 0.02 0.03 0.06 0.06 0.05 0.04 0.04 0.05 0.07 0.11 0.09 0.06 0.06 0.06 0.08 0.08 0.08 0.08 0.07 0.08 0.08 0.08 0.07 0.07 0.06 0.06 0.07 0.07
0.00 0.00 0.00 0.00 0.00 0.00 0.00 0.00 0.00 0.00 0.00 0.00 0.00 0.00 0.00 0.00 0.00 0.00 0.00 0.01 0.01 0.02 0.02 0.01 0.02 0.02 0.04 0.04 0.04 0.05 0.06 0.10 0.10 0.10 0.08 0.09 0.11 0.11 0.11 0.11 0.09 0.08 0.07 0.05 0.06 0.05 0.04 0.04 0.04
0.00 0.00 0.00 0.00 0.00 0.00 0.00 0.00 0.00 0.00 0.00 0.00 0.00 0.00 0.00 0.00 0.00 0.00 0.01 0.01 0.02 0.02 0.01 0.01 0.01 0.01 0.02 0.03 0.03 0.03 0.03 0.04 0.06 0.11 0.11 0.08 0.07 0.07 0.10 0.15 0.18 0.16 0.12 0.07 0.05 0.04 0.05 0.05 0.05
0.00 0.00 0.00 0.00 0.00 0.00 0.00 0.00 0.00 0.00 0.00 0.00 0.00 0.00 0.00 0.00 0.00 0.01 0.01 0.01 0.01 0.01 0.01 0.01 0.01 0.01 0.01 0.01 0.01 0.02 0.03 0.04 0.03 0.06 0.10 0.09 0.07 0.07 0.07 0.09 0.14 0.17 0.17 0.13 0.09 0.06 0.06 0.06 0.06
0.00 0.00 0.00 0.00 0.00 0.00 0.00 0.00 0.00 0.00 0.00 0.00 0.00 0.00 0.00 0.00 0.00 0.00 0.01 0.01 0.01 0.00 0.01 0.01 0.02 0.01 0.01 0.02 0.02 0.03 0.03 0.03 0.03 0.03 0.05 0.08 0.08 0.08 0.08 0.09 0.10 0.11 0.12 0.12 0.13 0.13 0.10 0.08 0.07
0.00 0.00 0.00 0.00 0.00 0.00 0.00 0.00 0.00 0.00 0.00 0.00 0.00 0.00 0.00 0.00 0.00 0.00 0.01 0.01 0.01 0.01 0.01 0.01 0.01 0.01 0.01 0.01 0.02 0.03 0.03 0.03 0.03 0.03 0.04 0.06 0.08 0.08 0.08 0.08 0.08 0.08 0.08 0.08 0.09 0.11 0.12 0.12 0.10
MSLP
1006.40 1006.93 1007.63 1008.40 1009.13 1009.72 1010.11 1010.30 1010.30 1010.21 1010.10 1010.04 1010.07 1010.18 1010.31 1010.40 1010.36 1010.17 1009.83 1009.39 1008.94 1008.58 1008.38 1008.40 1008.62 1008.98 1009.42 1009.85 1010.21 1010.49 1010.69 1010.88 1011.12 1011.45 1011.90 1012.46 1013.07 1013.69 1014.24 1014.68 1015.01 1015.24 1015.42 1015.60 1015.81 1016.07 1016.37 1016.68 1016.95
1006.50 1007.14 1007.92 1008.75 1009.50 1010.09 1010.47 1010.61 1010.57 1010.42 1010.25 1010.13 1010.10 1010.13 1010.17 1010.16 1010.02 1009.74 1009.32 1008.83 1008.37 1008.03 1007.90 1008.01 1008.34 1008.84 1009.40 1009.95 1010.41 1010.77 1011.04 1011.27 1011.53 1011.86 1012.30 1012.83 1013.41 1013.98 1014.49 1014.90 1015.21 1015.44 1015.63 1015.83 1016.08 1016.37 1016.69 1017.00 1017.27
1006.72 1007.44 1008.28 1009.12 1009.88 1010.44 1010.77 1010.87 1010.78 1010.58 1010.36 1010.19 1010.09 1010.03 1009.98 1009.85 1009.59 1009.18 1008.66 1008.10 1007.61 1007.29 1007.21 1007.41 1007.87 1008.50 1009.22 1009.91 1010.52 1011.00 1011.36 1011.67 1011.96 1012.31 1012.74 1013.23 1013.76 1014.28 1014.75 1015.12 1015.42 1015.65 1015.86 1016.10 1016.37 1016.69 1017.03 1017.34 1017.60
1007.00 1007.76 1008.62 1009.46 1010.18 1010.69 1010.97 1011.02 1010.89 1010.66 1010.41 1010.21 1010.05 1009.93 1009.78 1009.53 1009.14 1008.60 1007.96 1007.31 1006.76 1006.43 1006.39 1006.67 1007.24 1008.02 1008.89 1009.75 1010.51 1011.14 1011.63 1012.03 1012.39 1012.77 1013.19 1013.66 1014.15 1014.62 1015.04 1015.39 1015.67 1015.91 1016.15 1016.41 1016.72 1017.06 1017.40 1017.70 1017.92
1007.27 1008.04 1008.88 1009.68 1010.34 1010.79 1011.02 1011.03 1010.88 1010.65 1010.41 1010.20 1010.03 1009.86 1009.63 1009.28 1008.76 1008.10 1007.34 1006.59 1005.98 1005.63 1005.61 1005.94 1006.61 1007.51 1008.52 1009.53 1010.45 1011.22 1011.84 1012.35 1012.79 1013.22 1013.65 1014.11 1014.56 1014.99 1015.38 1015.70 1015.98 1016.23 1016.49 1016.78 1017.10 1017.44 1017.77 1018.04 1018.21
1007.47 1008.23 1009.01 1009.74 1010.33 1010.73 1010.91 1010.91 1010.77 1010.58 1010.38 1010.21 1010.05 1009.87 1009.60 1009.17 1008.57 1007.80 1006.94 1006.12 1005.45 1005.06 1005.04 1005.41 1006.14 1007.12 1008.24 1009.37 1010.41 1011.32 1012.06 1012.67 1013.19 1013.66 1014.11 1014.56 1014.99 1015.39 1015.74 1016.05 1016.32 1016.58 1016.85 1017.16 1017.48 1017.81 1018.11 1018.33 1018.43
1007.59 1008.29 1009.00 1009.66 1010.18 1010.52 1010.69 1010.70 1010.61 1010.47 1010.35 1010.25 1010.16 1010.00 1009.73 1009.29 1008.64 1007.82 1006.91 1006.03 1005.33 1004.92 1004.90 1005.27 1006.03 1007.05 1008.22 1009.42 1010.54 1011.53 1012.36 1013.04 1013.61 1014.12 1014.58 1015.01 1015.42 1015.79 1016.11 1016.40 1016.66 1016.92 1017.20 1017.50 1017.82 1018.13 1018.38 1018.54 1018.58
1007.62 1008.26 1008.90 1009.48 1009.94 1010.25 1010.42 1010.46 1010.44 1010.40 1010.38 1010.38 1010.37 1010.28 1010.06 1009.64 1009.00 1008.19 1007.29 1006.42 1005.72 1005.31 1005.29 1005.66 1006.41 1007.42 1008.59 1009.80 1010.94 1011.95 1012.81 1013.52 1014.11 1014.62 1015.07 1015.48 1015.85 1016.18 1016.47 1016.73 1016.97 1017.22 1017.49 1017.79 1018.09 1018.37 1018.57 1018.68 1018.66
1007.60 1008.18 1008.76 1009.28 1009.70 1010.00 1010.18 1010.29 1010.35 1010.41 1010.50 1010.61 1010.70 1010.70 1010.56 1010.22 1009.66 1008.91 1008.08 1007.27 1006.63 1006.26 1006.24 1006.60 1007.32 1008.29 1009.41 1010.56 1011.66 1012.63 1013.46 1014.15 1014.72 1015.20 1015.61 1015.97 1016.29 1016.56 1016.80 1017.02 1017.23 1017.46 1017.72 1018.00 1018.28 1018.53 1018.70 1018.76 1018.70
1007.60 1008.14 1008.67 1009.15 1009.54 1009.85 1010.06 1010.22 1010.36 1010.52 1010.71 1010.92 1011.11 1011.22 1011.18 1010.95 1010.51 1009.90 1009.19 1008.51 1007.96 1007.66 1007.68 1008.03 1008.70 1009.59 1010.62 1011.67 1012.67 1013.56 1014.31 1014.93 1015.44 1015.85 1016.20 1016.49 1016.74 1016.95 1017.12 1017.29 1017.46 1017.66 1017.89 1018.15 1018.42 1018.65 1018.80 1018.84 1018.75
1007.66 1008.18 1008.69 1009.14 1009.53 1009.84 1010.09 1010.30 1010.50 1010.73 1011.00 1011.29 1011.57 1011.77 1011.84 1011.75 1011.46 1011.01 1010.48 1009.95 1009.54 1009.34 1009.41 1009.76 1010.37 1011.18 1012.08 1013.01 1013.88 1014.65 1015.29 1015.81 1016.23 1016.56 1016.83 1017.04 1017.21 1017.35 1017.46 1017.57 1017.69 1017.85 1018.06 1018.30 1018.55 1018.76 1018.91 1018.94 1018.84
1007.85 1008.36 1008.85 1009.29 1009.67 1009.99 1010.25 1010.49 1010.73 1011.00 1011.31 1011.65 1011.99 1012.27 1012.45 1012.48 1012.36 1012.10 1011.76 1011.42 1011.17 1011.08 1011.20 1011.55 1012.11 1012.82 1013.61 1014.39 1015.12 1015.76 1016.28 1016.70 1017.03 1017.28 1017.47 1017.60 1017.70 1017.77 1017.82 1017.87 1017.95 1018.08 1018.25 1018.47 1018.70 1018.92 1019.06 1019.10 1019.01
1008.17 1008.67 1009.14 1009.57 1009.94 1010.25 1010.51 1010.75 1010.99 1011.27 1011.58 1011.94 1012.30 1012.64 1012.91 1013.07 1013.10 1013.02 1012.87 1012.72 1012.62 1012.64 1012.82 1013.18 1013.69 1014.31 1014.97 1015.63 1016.23 1016.75 1017.17 1017.50 1017.74 1017.93 1018.05 1018.14 1018.19 1018.20 1018.21 1018.22 1018.26 1018.35 1018.50 1018.69 1018.91 1019.12 1019.26 1019.31 1019.23
1008.59 1009.08 1009.53 1009.93 1010.27 1010.56 1010.79 1011.01 1011.22 1011.47 1011.76 1012.10 1012.47 1012.84 1013.17 1013.43 1013.60 1013.69 1013.71 1013.71 1013.75 1013.87 1014.10 1014.45 1014.91 1015.45 1016.02 1016.56 1017.06 1017.49 1017.83 1018.09 1018.29 1018.43 1018.53 1018.59 1018.61 1018.61 1018.59 1018.58 1018.59 1018.66 1018.78 1018.96 1019.16 1019.35 1019.49 1019.54 1019.47
1009.06 1009.52 1009.93 1010.29 1010.59 1010.83 1011.03 1011.20 1011.36 1011.56 1011.80 1012.10 1012.46 1012.85 1013.23 1013.58 1013.86 1014.08 1014.24 1014.37 1014.51 1014.69 1014.95 1015.29 1015.71 1016.18 1016.66 1017.13 1017.55 1017.92 1018.21 1018.44 1018.62 1018.75 1018.85 1018.90 1018.93 1018.93 1018.91 1018.90 1018.91 1018.96 1019.07 1019.22 1019.40 1019.57 1019.69 1019.73 1019.66
1009.50 1009.91 1010.27 1010.59 1010.84 1011.04 1011.18 1011.29 1011.39 1011.52 1011.71 1011.97 1012.30 1012.70 1013.12 1013.54 1013.91 1014.24 1014.50 1014.73 1014.94 1015.16 1015.43 1015.75 1016.12 1016.52 1016.95 1017.35 1017.73 1018.05 1018.33 1018.55 1018.72 1018.86 1018.96 1019.04 1019.09 1019.11 1019.12 1019.13 1019.15 1019.20 1019.29 1019.42 1019.56 1019.70 1019.80 1019.82 1019.73
1009.85 1010.21 1010.53 1010.80 1011.01 1011.15 1011.24 1011.28 1011.32 1011.38 1011.50 1011.72 1012.03 1012.43 1012.89 1013.36 1013.82 1014.23 1014.58 1014.87 1015.13 1015.37 1015.62 1015.91 1016.24 1016.59 1016.97 1017.34 1017.68 1017.98 1018.24 1018.45 1018.63 1018.77 1018.89 1018.98 1019.06 1019.12 1019.16 1019.20 1019.24 1019.30 1019.38 1019.49 1019.60 1019.70 1019.76 1019.75 1019.65
1010.08 1010.40 1010.69 1010.93 1011.11 1011.21 1011.25 1011.23 1011.18 1011.17 1011.23 1011.40 1011.68 1012.09 1012.57 1013.11 1013.64 1014.12 1014.54 1014.89 1015.17 1015.42 1015.66 1015.92 1016.21 1016.53 1016.86 1017.20 1017.52 1017.80 1018.05 1018.25 1018.41 1018.54 1018.65 1018.75 1018.84 1018.93 1019.00 1019.08 1019.15 1019.22 1019.30 1019.39 1019.47 1019.52 1019.54 1019.50 1019.38
1010.18 1010.49 1010.78 1011.02 1011.19 1011.27 1011.26 1011.17 1011.05 1010.95 1010.93 1011.03 1011.29 1011.69 1012.21 1012.79 1013.39 1013.95 1014.43 1014.83 1015.15 1015.41 1015.64 1015.88 1016.14 1016.43 1016.75 1017.06 1017.36 1017.62 1017.84 1018.01 1018.13 1018.23 1018.31 1018.39 1018.47 1018.56 1018.66 1018.76 1018.86 1018.95 1019.04 1019.11 1019.16 1019.18 1019.17 1019.10 1018.97
1010.19 1010.53 1010.86 1011.14 1011.33 1011.40 1011.34 1011.18 1010.96 1010.75 1010.63 1010.65 1010.86 1011.24 1011.77 1012.40 1013.06 1013.69 1014.25 1014.71 1015.07 1015.35 1015.60 1015.84 1016.09 1016.37 1016.68 1016.98 1017.26 1017.50 1017.68 1017.80 1017.87 1017.90 1017.91 1017.94 1017.99 1018.06 1018.17 1018.28 1018.40 1018.51 1018.60 1018.67 1018.70 1018.70 1018.66 1018.57 1018.44
1010.16 1010.57 1010.98 1011.33 1011.56 1011.62 1011.52 1011.27 1010.94 1010.60 1010.35 1010.26 1010.37 1010.71 1011.24 1011.90 1012.62 1013.32 1013.96 1014.48 1014.90 1015.23 1015.51 1015.77 1016.04 1016.33 1016.65 1016.95 1017.23 1017.45 1017.59 1017.65 1017.64 1017.59 1017.53 1017.48 1017.47 1017.50 1017.58 1017.70 1017.83 1017.95 1018.05 1018.12 1018.14 1018.12 1018.07 1017.98 1017.86
1010.15 1010.67 1011.19 1011.62 1011.90 1011.97 1011.81 1011.46 1010.98 1010.48 1010.07 1009.84 1009.84 1010.10 1010.60 1011.27 1012.03 1012.80 1013.50 1014.10 1014.59 1014.98 1015.31 1015.61 1015.92 1016.24 1016.58 1016.91 1017.20 1017.41 1017.52 1017.53 1017.46 1017.33 1017.18 1017.04 1016.96 1016.94 1016.99 1017.09 1017.21 1017.34 1017.45 1017.52 1017.54 1017.52 1017.46 1017.38 1017.29
1010.18 1010.83 1011.47 1011.99 1012.32 1012.38 1012.16 1011.69 1011.06 1010.39 1009.79 1009.39 1009.26 1009.42 1009.86 1010.51 1011.29 1012.11 1012.88 1013.54 1014.10 1014.55 1014.94 1015.29 1015.65 1016.02 1016.40 1016.77 1017.09 1017.31 1017.42 1017.41 1017.29 1017.10 1016.88 1016.67 1016.51 1016.44 1016.44 1016.51 1016.62 1016.75 1016.85 1016.92 1016.94 1016.92 1016.87 1016.81 1016.74
1010.24 1011.01 1011.76 1012.37 1012.74 1012.78 1012.50 1011.92 1011.13 1010.28 1009.50 1008.93 1008.65 1008.70 1009.07 1009.69 1010.46 1011.30 1012.11 1012.83 1013.44 1013.95 1014.38 1014.78 1015.19 1015.61 1016.05 1016.47 1016.83 1017.10 1017.24 1017.24 1017.11 1016.89 1016.62 1016.37 1016.16 1016.03 1015.99 1016.02 1016.11 1016.22 1016.32 1016.38 1016.40 1016.38 1016.34 1016.29 1016.25
1010.30 1011.17 1012.00 1012.66 1013.05 1013.08 1012.73 1012.05 1011.14 1010.14 1009.21 1008.49 1008.09 1008.03 1008.32 1008.88 1009.64 1010.47 1011.29 1012.03 1012.67 1013.20 1013.67 1014.11 1014.55 1015.01 1015.50 1015.98 1016.40 1016.73 1016.93 1016.98 1016.88 1016.68 1016.41 1016.13 1015.90 1015.73 1015.65 1015.66 1015.72 1015.80 1015.88 1015.93 1015.94 1015.91 1015.87 1015.83 1015.82
1010.29 1011.21 1012.08 1012.77 1013.16 1013.16 1012.77 1012.03 1011.04 1009.95 1008.92 1008.11 1007.61 1007.47 1007.69 1008.21 1008.92 1009.73 1010.53 1011.27 1011.90 1012.43 1012.90 1013.34 1013.80 1014.29 1014.81 1015.34 1015.83 1016.23 1016.51 1016.63 1016.61 1016.46 1016.23 1015.97 1015.73 1015.55 1015.45 1015.42 1015.45 1015.50 1015.55 1015.58 1015.57 1015.53 1015.49 1015.45 1015.44
1010.16 1011.08 1011.95 1012.63 1013.00 1012.98 1012.57 1011.81 1010.80 1009.69 1008.65 1007.80 1007.27 1007.10 1007.27 1007.74 1008.41 1009.18 1009.94 1010.64 1011.23 1011.74 1012.17 1012.60 1013.04 1013.53 1014.07 1014.64 1015.18 1015.66 1016.02 1016.24 1016.30 1016.24 1016.08 1015.87 1015.66 1015.49 1015.37 1015.32 1015.32 1015.34 1015.36 1015.35 1015.32 1015.26 1015.20 1015.15 1015.14
1009.88 1010.75 1011.57 1012.20 1012.54 1012.52 1012.12 1011.39 1010.43 1009.38 1008.39 1007.59 1007.09 1006.92 1007.09 1007.53 1008.16 1008.87 1009.58 1010.21 1010.75 1011.20 1011.59 1011.98 1012.39 1012.86 1013.40 1013.98 1014.57 1015.10 1015.54 1015.85 1016.01 1016.04 1015.96 1015.82 1015.66 1015.52 1015.41 1015.35 1015.32 1015.31 1015.29 1015.26 1015.20 1015.11 1015.02 1014.95 1014.92
1009.47 1010.25 1010.97 1011.53 1011.82 1011.80 1011.44 1010.79 1009.93 1009.00 1008.13 1007.44 1007.02 1006.91 1007.09 1007.52 1008.11 1008.78 1009.42 1010.00 1010.48 1010.87 1011.21 1011.54 1011.92 1012.36 1012.88 1013.46 1014.07 1014.64 1015.14 1015.52 1015.77 1015.89 1015.90 1015.84 1015.74 1015.63 1015.54 1015.48 1015.44 1015.40 1015.36 1015.29 1015.20 1015.09 1014.98 1014.88 1014.81
1008.98 1009.63 1010.24 1010.70 1010.94 1010.91 1010.60 1010.05 1009.34 1008.57 1007.86 1007.32 1007.01 1006.97 1007.19 1007.62 1008.19 1008.80 1009.39 1009.91 1010.34 1010.69 1011.00 1011.30 1011.64 1012.06 1012.56 1013.13 1013.73 1014.32 1014.86 1015.29 1015.61 1015.80 1015.89 1015.90 1015.85 1015.79 1015.73 1015.68 1015.63 1015.59 1015.53 1015.44 1015.33 1015.19 1015.06 1014.93 1014.83
Thickness
5817 5821 5821 5815 5809 5808 5799 5804 5811 5809 5809 5813 5814 5810 5802 5797 5792 5785 5805 5813 5812 5810 5807 5802 5799 5797 5796 5796 5795 5794 5793 5792 5791 5789 5788 5786 5784 5782 5781 5779 5778 5776 5775 5774 5773 5772 5771 5770 5769
5826 5824 5819 5816 5811 5797 5796 5808 5806 5807 5812 5816 5814 5811 5805 5800 5805 5804 5808 5810 5811 5809 5807 5803 5798 5797 5795 5794 5793 5792 5791 5790 5789 5788 5786 5784 5782 5780 5779 5777 5776 5774 5773 5772 5771 5770 5770 5769 5768
5828 5826 5819 5820 5810 5799 5797 5809 5810 5813 5818 5815 5810 5811 5805 5799 5804 5806 5810 5811 5811 5808 5806 5801 5797 5795 5794 5793 5791 5791 5790 5789 5788 5786 5785 5783 5781 5779 5777 5775 5774 5773 5771 5770 5769 5769 5768 5768 5767
5829 5824 5824 5819 5806 5810 5812 5815 5817 5814 5816 5816 5813 5805 5805 5807 5809 5811 5812 5812 5810 5807 5805 5800 5796 5794 5793 5791 5790 5789 5788 5787 5786 5785 5783 5782 5780 5778 5776 5774 5772 5771 5770 5769 5768 5768 5767 5767 5766
5832 5827 5822 5815 5812 5817 5824 5824 5823 5815 5812 5813 5812 5802 5800 5808 5814 5814 5813 5811 5808 5806 5805 5800 5795 5793 5791 5790 5789 5788 5787 5786 5785 5783 5782 5780 5779 5777 5775 5773 5771 5770 5769 5768 5767 5767 5766 5766 5765
5832 5832 5820 5809 5812 5820 5827 5829 5825 5817 5814 5814 5811 5803 5799 5809 5810 5811 5812 5810 5809 5806 5804 5799 5794 5792 5790 5789 5788 5786 5786 5785 5783 5782 5780 5779 5777 5776 5774 5773 5771 5769 5768 5767 5766 5766 5765 5764 5764
5830 5830 5820 5818 5815 5818 5824 5832 5825 5820 5814 5815 5817 5805 5802 5807 5810 5811 5810 5808 5808 5807 5804 5800 5796 5793 5790 5788 5787 5785 5784 5784 5782 5780 5779 5778 5777 5775 5774 5772 5770 5769 5767 5766 5766 5765 5764 5764 5763
5841 5836 5827 5824 5818 5818 5831 5833 5830 5824 5818 5825 5823 5807 5801 5805 5811 5810 5807 5806 5805 5804 5803 5799 5797 5795 5792 5790 5786 5784 5783 5782 5780 5779 5778 5777 5776 5775 5773 5772 5770 5769 5767 5766 5765 5765 5764 5763 5763
5845 5835 5822 5823 5821 5824 5834 5829 5829 5834 5826 5822 5822 5818 5814 5813 5811 5806 5802 5800 5798 5798 5799 5798 5796 5795 5794 5792 5788 5785 5783 5781 5780 5779 5778 5777 5777 5776 5774 5772 5770 5769 5767 5766 5765 5764 5763 5763 5764
5841 5830 5826 5836 5838 5834 5834 5831 5830 5827 5819 5817 5816 5817 5816 5812 5808 5803 5799 5796 5795 5794 5795 5795 5795 5794 5793 5792 5788 5786 5785 5782 5781 5780 5779 5778 5777 5776 5775 5772 5770 5769 5767 5765 5764 5764 5763 5764 5767
5842 5834 5839 5843 5846 5843 5837 5834 5837 5828 5817 5819 5815 5813 5812 5809 5806 5804 5800 5799 5797 5796 5794 5794 5793 5793 5792 5790 5788 5786 5785 5783 5781 5780 5779 5778 5777 5776 5775 5773 5771 5769 5767 5767 5765 5765 5766 5767 5768
5842 5843 5845 5846 5848 5844 5839 5838 5834 5829 5825 5830 5827 5822 5815 5809 5807 5804 5801 5799 5798 5795 5793 5793 5792 5790 5789 5788 5788 5786 5785 5783 5782 5780 5779 5778 5777 5776 5776 5774 5773 5771 5769 5767 5767 5766 5766 5766 5766
5841 5843 5848 5851 5850 5847 5843 5837 5832 5828 5833 5833 5828 5822 5816 5813 5810 5807 5806 5802 5798 5794 5793 5792 5790 5788 5787 5786 5786 5786 5784 5784 5783 5781 5779 5778 5778 5777 5776 5774 5772 5771 5769 5768 5767 5767 5766 5765 5765
5845 5846 5848 5850 5848 5846 5838 5835 5831 5827 5833 5829 5824 5820 5818 5814 5811 5807 5804 5800 5798 5795 5793 5793 5790 5788 5787 5786 5785 5785 5785 5783 5783 5781 5779 5778 5778 5776 5775 5774 5771 5771 5769 5769 5767 5767 5765 5765 5766
5850 5842 5843 5846 5846 5845 5841 5826 5827 5831 5832 5825 5822 5819 5817 5815 5812 5807 5805 5802 5800 5796 5794 5792 5791 5790 5788 5787 5786 5786 5785 5784 5783 5781 5779 5777 5777 5775 5774 5773 5772 5771 5770 5768 5767 5766 5766 5765 5765
5846 5838 5829 5839 5844 5844 5836 5816 5828 5834 5829 5822 5821 5818 5815 5813 5812 5810 5808 5804 5802 5798 5794 5792 5793 5790 5787 5786 5785 5786 5785 5784 5783 5782 5780 5778 5776 5775 5774 5774 5773 5771 5770 5769 5767 5767 5766 5764 5764
5835 5827 5826 5832 5843 5842 5834 5822 5829 5835 5830 5822 5820 5819 5815 5812 5811 5810 5809 5806 5802 5798 5795 5792 5791 5789 5787 5786 5785 5784 5784 5783 5783 5782 5781 5778 5776 5775 5774 5774 5772 5770 5770 5769 5768 5767 5765 5764 5763
5822 5827 5825 5825 5837 5836 5829 5827 5831 5834 5831 5825 5822 5820 5816 5814 5813 5812 5810 5807 5803 5799 5795 5792 5791 5789 5787 5785 5784 5784 5783 5784 5783 5783 5780 5778 5777 5775 5774 5773 5771 5770 5770 5768 5767 5764 5764 5763 5762
5830 5827 5824 5828 5838 5832 5826 5826 5831 5832 5829 5825 5822 5819 5817 5816 5818 5816 5812 5809 5805 5800 5796 5793 5790 5789 5787 5786 5784 5783 5782 5783 5783 5782 5780 5779 5777 5776 5773 5774 5771 5770 5769 5767 5767 5765 5763 5762 5763
5826 5821 5823 5828 5834 5829 5825 5825 5833 5832 5828 5827 5824 5821 5820 5819 5817 5814 5813 5810 5806 5801 5797 5794 5791 5790 5788 5787 5785 5785 5784 5784 5784 5783 5780 5779 5777 5776 5775 5772 5772 5771 5768 5766 5765 5764 5763 5763 5763
5822 5821 5822 5820 5826 5830 5823 5819 5825 5830 5831 5829 5828 5827 5826 5822 5818 5815 5813 5810 5807 5802 5799 5797 5793 5791 5788 5787 5787 5785 5783 5782 5782 5780 5779 5779 5778 5776 5774 5773 5772 5771 5770 5768 5765 5764 5762 5759 5761
5815 5828 5824 5820 5814 5817 5817 5806 5820 5825 5823 5824 5825 5826 5825 5824 5821 5818 5814 5811 5808 5805 5802 5798 5794 5791 5788 5787 5785 5783 5780 5779 5780 5780 5781 5780 5778 5776 5775 5773 5772 5770 5771 5768 5767 5767 5764 5760 5758
5820 5828 5823 5820 5815 5812 5815 5806 5816 5823 5816 5821 5824 5825 5827 5826 5823 5819 5816 5813 5810 5808 5804 5800 5795 5791 5788 5786 5784 5781 5780 5780 5781 5780 5778 5777 5777 5776 5775 5773 5772 5770 5770 5768 5767 5765 5764 5763 5760
5823 5819 5817 5818 5816 5795 5806 5801 5803 5817 5816 5820 5824 5824 5825 5826 5824 5820 5818 5814 5810 5808 5804 5800 5794 5790 5787 5785 5784 5780 5778 5777 5776 5775 5775 5775 5776 5776 5774 5773 5771 5770 5770 5768 5766 5765 5764 5762 5761
5815 5805 5793 5789 5791 5794 5808 5798 5801 5817 5821 5821 5822 5822 5823 5823 5822 5818 5815 5812 5808 5806 5803 5800 5795 5790 5788 5785 5783 5781 5779 5776 5774 5773 5773 5773 5775 5774 5773 5773 5771 5770 5768 5767 5766 5764 5764 5762 5760
5809 5809 5789 5778 5785 5798 5799 5794 5807 5820 5821 5823 5823 5822 5820 5819 5819 5817 5815 5812 5808 5805 5802 5799 5795 5791 5788 5785 5783 5781 5779 5778 5777 5775 5775 5774 5774 5774 5773 5771 5770 5769 5768 5767 5766 5765 5764 5762 5760
5802 5805 5817 5802 5795 5788 5798 5801 5808 5816 5813 5814 5815 5815 5813 5814 5815 5814 5812 5811 5807 5805 5802 5799 5794 5791 5788 5787 5784 5781 5779 5778 5777 5775 5774 5773 5772 5772 5771 5769 5768 5767 5766 5765 5764 5763 5762 5760 5759
5810 5810 5802 5794 5773 5771 5787 5791 5797 5799 5803 5805 5806 5806 5808 5810 5810 5810 5809 5808 5807 5805 5802 5798 5795 5790 5788 5786 5783 5781 5779 5777 5775 5774 5772 5771 5770 5769 5768 5766 5765 5764 5763 5762 5761 5760 5760 5757 5756
5792 5793 5794 5794 5792 5776 5774 5789 5810 5804 5805 5803 5803 5804 5805 5806 5807 5806 5805 5805 5804 5803 5799 5795 5792 5789 5786 5784 5781 5779 5777 5776 5774 5772 5770 5769 5768 5766 5764 5763 5762 5761 5760 5759 5757 5757 5756 5753 5753
5796 5794 5790 5778 5775 5780 5780 5789 5812 5809 5808 5804 5802 5800 5801 5801 5803 5803 5801 5800 5798 5797 5795 5792 5789 5787 5784 5782 5779 5776 5774 5773 5771 5769 5767 5766 5764 5763 5761 5760 5759 5758 5757 5756 5754 5752 5751 5750 5749